| time (UTC) | temp F | wind direction | speed MPH | gust MPH | rain 1hr in | rain 24hr in | rain mn in | humidity % | barometer mb |
| 20260902143026 | 66 | 298 | 0.0 | 3.0 | 0.00 | 0.04 | 0.01 | 83 | 1022.2 |
| 20260902141529 | 66 | 42 | 0.0 | 2.0 | 0.00 | 0.04 | 0.01 | 82 | 1022.1 |
| 20260902140011 | 64 | 140 | 0.0 | 2.0 | 0.00 | 0.04 | 0.01 | 87 | 1022.0 |
| 20260902134516 | 64 | 118 | 0.0 | 2.0 | 0.00 | 0.04 | 0.01 | 88 | 1021.9 |
| 20260902133027 | 64 | 93 | 0.0 | 2.0 | 0.00 | 0.04 | 0.01 | 90 | 1021.6 |
| 20260902131532 | 63 | 71 | 0.0 | 2.0 | 0.00 | 0.04 | 0.01 | 91 | 1021.2 |
| 20260902130030 | 62 | 181 | 0.0 | 2.0 | 0.00 | 0.07 | 0.01 | 92 | 1021.6 |
| 20260902124524 | 61 | 113 | 0.0 | 2.0 | 0.00 | 0.07 | 0.01 | 95 | 1021.7 |
| 20260902123020 | 60 | 65 | 0.0 | 3.0 | 0.00 | 0.10 | 0.01 | 95 | 1021.8 |
| 20260902121523 | 60 | 74 | 1.0 | 2.0 | 0.00 | 0.12 | 0.01 | 96 | 1021.9 |
| 20260902120030 | 60 | 66 | 0.0 | 2.0 | 0.00 | 0.17 | 0.01 | 97 | 1021.7 |
| 20260902114602 | 60 | 66 | 0.0 | 2.0 | 0.00 | 0.20 | 0.01 | 97 | 1021.8 |
| 20260902113016 | 59 | 321 | 0.0 | 0.0 | 0.00 | 0.23 | 0.01 | 97 | 1021.9 |
| 20260902111522 | 59 | 321 | 0.0 | 0.0 | 0.00 | 0.26 | 0.01 | 97 | 1022.0 |
| 20260902110013 | 59 | 321 | 0.0 | 0.0 | 0.00 | 0.31 | 0.01 | 97 | 1021.9 |
| 20260902104508 | 59 | 321 | 0.0 | 0.0 | 0.00 | 0.31 | 0.01 | 97 | 1021.6 |
| 20260902103013 | 59 | 321 | 0.0 | 0.0 | 0.00 | 0.31 | 0.01 | 97 | 1021.4 |
| 20260902101509 | 58 | 321 | 0.0 | 0.0 | 0.00 | 0.31 | 0.01 | 97 | 1021.3 |
| 20260902100012 | 58 | 321 | 0.0 | 0.0 | 0.00 | 0.31 | 0.01 | 97 | 1021.2 |
| 20260902094512 | 58 | 321 | 0.0 | 0.0 | 0.00 | 0.31 | 0.01 | 97 | 1021.2 |
| 20260902093010 | 58 | 321 | 0.0 | 0.0 | 0.00 | 0.31 | 0.01 | 97 | 1021.1 |
| 20260902091515 | 59 | 321 | 0.0 | 0.0 | 0.00 | 0.31 | 0.01 | 96 | 1021.0 |
| 20260902090010 | 59 | 321 | 0.0 | 2.0 | 0.00 | 0.31 | 0.01 | 97 | 1020.9 |
| 20260902084522 | 59 | 321 | 0.0 | 1.0 | 0.00 | 0.31 | 0.01 | 97 | 1020.9 |
| 20260902083008 | 59 | 321 | 0.0 | 2.0 | 0.00 | 0.31 | 0.01 | 97 | 1020.8 |
| 20260902081511 | 59 | 351 | 0.0 | 2.0 | 0.00 | 0.31 | 0.01 | 96 | 1020.9 |
| 20260902080015 | 59 | 351 | 0.0 | 2.0 | 0.00 | 0.31 | 0.01 | 96 | 1021.0 |
| 20260902074514 | 59 | 336 | 0.0 | 2.0 | 0.00 | 0.31 | 0.01 | 97 | 1021.0 |
| 20260902073014 | 59 | 300 | 0.0 | 0.0 | 0.00 | 0.31 | 0.01 | 97 | 1021.0 |
| 20260902071513 | 60 | 300 | 0.0 | 0.0 | 0.00 | 0.31 | 0.01 | 96 | 1021.0 |
| 20260902070018 | 60 | 300 | 0.0 | 1.0 | 0.00 | 0.31 | 0.01 | 96 | 1021.1 |
| 20260902064522 | 60 | 300 | 0.0 | 2.0 | 0.00 | 0.31 | 0.01 | 96 | 1021.0 |
| 20260902063023 | 60 | 300 | 0.0 | 2.0 | 0.00 | 0.31 | 0.01 | 97 | 1020.9 |
| 20260902061535 | 60 | 300 | 0.0 | 1.0 | 0.00 | 0.31 | 0.01 | 97 | 1020.9 |
| 20260902060019 | 60 | 300 | 0.0 | 2.0 | 0.00 | 0.31 | 0.01 | 97 | 1020.7 |
| 20260902054534 | 60 | 300 | 0.0 | 0.0 | 0.00 | 0.31 | 0.01 | 97 | 1020.5 |
| 20260902053023 | 60 | 300 | 0.0 | 0.0 | 0.01 | 0.31 | 0.01 | 97 | 1020.3 |
| 20260902051520 | 60 | 300 | 0.0 | 2.0 | 0.01 | 0.31 | 0.01 | 96 | 1020.3 |
| 20260902050020 | 60 | 299 | 0.0 | 2.0 | 0.01 | 0.31 | 0.01 | 96 | 1020.2 |
| 20260902044519 | 60 | 299 | 0.0 | 0.0 | 0.01 | 0.31 | 0.01 | 96 | 1020.1 |
| 20260902043021 | 61 | 299 | 0.0 | 2.0 | 0.00 | 0.30 | 0.00 | 96 | 1019.9 |
| 20260902041526 | 61 | 299 | 0.0 | 1.0 | 0.00 | 0.30 | 0.00 | 96 | 1019.7 |
| 20260902040026 | 61 | 299 | 0.0 | 2.0 | 0.00 | 0.30 | 0.00 | 96 | 1019.6 |
| 20260902034526 | 61 | 299 | 0.0 | 2.0 | 0.00 | 0.30 | 0.30 | 96 | 1019.6 |
| 20260902033020 | 61 | 299 | 0.0 | 2.0 | 0.00 | 0.30 | 0.30 | 96 | 1019.6 |
| 20260902031525 | 61 | 299 | 0.0 | 2.0 | 0.00 | 0.30 | 0.30 | 96 | 1019.7 |
| 20260902030007 | 61 | 311 | 0.0 | 2.0 | 0.00 | 0.30 | 0.30 | 96 | 1019.6 |
| 20260902024511 | 61 | 311 | 0.0 | 2.0 | 0.00 | 0.30 | 0.30 | 96 | 1019.3 |
| 20260902023017 | 61 | 311 | 0.0 | 2.0 | 0.01 | 0.30 | 0.30 | 95 | 1019.2 |
| 20260902021522 | 61 | 311 | 0.0 | 0.0 | 0.03 | 0.30 | 0.30 | 95 | 1019.3 |
| 20260902020009 | 61 | 311 | 0.0 | 0.0 | 0.03 | 0.30 | 0.30 | 95 | 1019.2 |
| 20260902014507 | 61 | 309 | 0.0 | 2.0 | 0.03 | 0.30 | 0.30 | 94 | 1019.1 |
| 20260902013013 | 62 | 113 | 0.0 | 2.0 | 0.02 | 0.29 | 0.29 | 94 | 1019.2 |
| 20260902011519 | 62 | 121 | 0.0 | 2.0 | 0.00 | 0.27 | 0.27 | 93 | 1019.1 |
| 20260902010032 | 62 | 92 | 0.0 | 2.0 | 0.00 | 0.27 | 0.27 | 92 | 1019.3 |
| 20260902004509 | 62 | 121 | 0.0 | 2.0 | 0.00 | 0.27 | 0.27 | 91 | 1018.9 |
| 20260902003016 | 62 | 83 | 0.0 | 2.0 | 0.00 | 0.27 | 0.27 | 92 | 1018.8 |
| 20260902001518 | 62 | 72 | 0.0 | 2.0 | 0.00 | 0.27 | 0.27 | 92 | 1018.6 |
| 20260902000035 | 63 | 84 | 0.0 | 2.0 | 0.00 | 0.27 | 0.27 | 93 | 1018.4 |
| 20260901234525 | 63 | 138 | 0.0 | 2.0 | 0.00 | 0.27 | 0.27 | 93 | 1018.3 |
| 20260901233010 | 63 | 140 | 0.0 | 2.0 | 0.00 | 0.27 | 0.27 | 92 | 1018.2 |
| 20260901231513 | 63 | 86 | 0.0 | 2.0 | 0.00 | 0.27 | 0.27 | 92 | 1018.4 |
| 20260901230021 | 63 | 107 | 0.0 | 2.0 | 0.00 | 0.27 | 0.27 | 92 | 1018.2 |
| 20260901224529 | 64 | 101 | 0.0 | 3.0 | 0.00 | 0.27 | 0.27 | 91 | 1018.3 |
| 20260901223029 | 64 | 89 | 0.0 | 2.0 | 0.00 | 0.27 | 0.27 | 91 | 1018.4 |
| 20260901221513 | 64 | 71 | 0.0 | 2.0 | 0.00 | 0.27 | 0.27 | 90 | 1018.4 |
| 20260901220027 | 64 | 112 | 0.0 | 2.0 | 0.00 | 0.27 | 0.27 | 90 | 1018.2 |
| 20260901214526 | 65 | 79 | 0.0 | 2.0 | 0.00 | 0.27 | 0.27 | 88 | 1018.1 |
| 20260901213027 | 66 | 93 | 0.0 | 2.0 | 0.00 | 0.27 | 0.27 | 88 | 1018.0 |
| 20260901211510 | 66 | 139 | 0.0 | 3.0 | 0.00 | 0.27 | 0.27 | 88 | 1017.9 |
| 20260901210015 | 66 | 72 | 0.0 | 2.0 | 0.00 | 0.27 | 0.27 | 88 | 1017.9 |
| 20260901204525 | 66 | 148 | 0.0 | 2.0 | 0.00 | 0.27 | 0.27 | 88 | 1017.7 |
| 20260901203035 | 66 | 147 | 0.0 | 2.0 | 0.00 | 0.27 | 0.27 | 87 | 1017.4 |
| 20260901201533 | 65 | 76 | 0.0 | 3.0 | 0.00 | 0.27 | 0.27 | 88 | 1017.6 |
| 20260901200016 | 65 | 78 | 1.0 | 3.0 | 0.00 | 0.27 | 0.27 | 88 | 1017.6 |
| 20260901194519 | 66 | 89 | 1.0 | 3.0 | 0.00 | 0.27 | 0.27 | 88 | 1017.6 |
| 20260901193027 | 65 | 65 | 1.0 | 3.0 | 0.00 | 0.27 | 0.27 | 88 | 1017.6 |
| 20260901191528 | 65 | 69 | 1.0 | 3.0 | 0.00 | 0.27 | 0.27 | 89 | 1017.7 |
| 20260901190029 | 65 | 79 | 1.0 | 2.0 | 0.00 | 0.27 | 0.27 | 89 | 1017.8 |
| 20260901184516 | 65 | 136 | 0.0 | 2.0 | 0.00 | 0.27 | 0.27 | 89 | 1018.0 |
| 20260901183027 | 64 | 40 | 0.0 | 2.0 | 0.00 | 0.27 | 0.27 | 89 | 1018.0 |
| 20260901181535 | 64 | 148 | 0.0 | 2.0 | 0.00 | 0.27 | 0.27 | 88 | 1017.8 |
| 20260901180030 | 65 | 161 | 0.0 | 2.0 | 0.00 | 0.27 | 0.27 | 87 | 1017.8 |
| 20260901174533 | 65 | 146 | 0.0 | 2.0 | 0.00 | 0.27 | 0.27 | 85 | 1017.6 |
| 20260901173019 | 64 | 220 | 0.0 | 2.0 | 0.00 | 0.27 | 0.27 | 86 | 1017.6 |
| 20260901171529 | 63 | 45 | 0.0 | 2.0 | 0.00 | 0.27 | 0.27 | 88 | 1017.6 |
| 20260901170056 | 62 | 94 | 0.0 | 3.0 | 0.00 | 0.27 | 0.27 | 88 | 1017.7 |
| 20260901164531 | 62 | 72 | 1.0 | 2.0 | 0.00 | 0.27 | 0.27 | 88 | 1017.5 |
| 20260901163038 | 62 | 155 | 0.0 | 2.0 | 0.00 | 0.27 | 0.27 | 90 | 1017.5 |
| 20260901161523 | 61 | 84 | 0.0 | 2.0 | 0.00 | 0.27 | 0.27 | 92 | 1017.7 |
| 20260901160026 | 61 | 86 | 0.0 | 2.0 | 0.00 | 0.27 | 0.27 | 91 | 1018.1 |
| 20260901154530 | 61 | 106 | 0.0 | 3.0 | 0.00 | 0.27 | 0.27 | 91 | 1018.2 |
| 20260901153031 | 61 | 49 | 1.0 | 3.0 | 0.00 | 0.27 | 0.27 | 89 | 1018.2 |
| 20260901151531 | 61 | 29 | 1.0 | 2.0 | 0.00 | 0.27 | 0.27 | 89 | 1018.2 |
| 20260901150040 | 61 | 30 | 0.0 | 3.0 | 0.00 | 0.27 | 0.27 | 90 | 1017.9 |
| 20260901144528 | 61 | 58 | 0.0 | 3.0 | 0.00 | 0.27 | 0.27 | 92 | 1017.7 |